Temp
33 32 31 31 32 35 35 35 34 34 34 33 32 31 30 28 29 33 34 32 32 31 33 35 33 34 35 35 36 33 32 32 32 33 33 33 33 33 32 31 32 32 32 32 32 31 31 30 29 29 29 27 26 26 26 26 26 26 25 25 24 24 24 24 23 23 23 23 23 23 23 23 23 22 22 22 22 23 23 22 22 22 22 22 22 22
32 30 31 34 35 35 34 34 34 33 34 33 32 30 30 29 31 34 33 31 31 30 32 35 33 34 35 35 35 33 32 32 32 33 33 33 33 32 32 32 32 32 32 32 31 30 30 29 29 28 28 28 28 27 27 26 26 26 26 25 25 25 25 24 23 23 23 23 23 24 24 24 24 23 23 23 23 23 23 22 22 22 22 22 22 22
30 30 33 36 35 34 33 34 33 33 34 33 32 30 28 30 33 32 32 31 30 30 32 34 32 33 35 35 35 33 32 33 33 33 33 33 33 32 32 32 32 32 31 31 30 29 29 29 28 28 28 28 28 28 28 27 26 26 26 26 25 25 25 25 24 24 24 24 24 24 24 25 24 24 23 23 23 23 23 22 22 22 22 22 22 22
28 31 35 35 34 34 33 33 33 33 33 33 33 29 27 32 32 28 29 31 31 31 32 32 31 33 36 35 35 34 32 33 32 32 33 33 33 32 32 33 32 32 32 30 30 30 29 29 28 28 28 28 28 28 28 28 27 26 26 26 25 25 25 25 24 24 24 24 24 23 24 24 24 24 23 23 23 23 23 23 22 22 22 22 22 22
30 32 34 34 33 34 33 33 34 32 31 33 34 31 29 33 32 30 32 33 32 31 31 30 28 30 35 35 35 33 32 32 31 31 31 32 32 32 32 33 33 32 32 31 30 30 29 29 29 28 28 28 28 28 29 28 27 27 27 26 25 25 24 24 24 24 24 24 23 23 23 23 23 24 23 23 23 23 23 23 23 23 22 22 23 23
33 34 33 33 33 34 33 33 34 32 30 31 34 34 33 34 34 34 35 33 29 26 30 30 24 25 32 35 35 34 32 32 31 31 31 31 31 31 32 32 32 32 32 31 31 30 30 29 29 28 28 28 28 28 29 29 28 27 27 26 25 25 24 24 24 23 24 24 23 23 23 23 23 24 24 23 24 24 24 24 24 23 23 23 23 23
33 34 33 33 33 34 33 33 34 34 29 27 32 36 35 36 34 34 33 30 25 25 30 31 25 23 28 33 35 35 34 34 32 31 32 31 31 31 32 32 32 31 31 31 31 31 30 30 29 29 28 28 28 28 28 28 28 28 27 26 25 25 25 24 24 23 24 24 24 24 24 24 24 24 24 24 25 25 24 25 24 24 23 23 23 23
34 33 33 33 34 33 33 32 34 35 30 28 33 35 35 35 34 34 33 29 28 29 30 31 29 24 24 30 35 35 34 35 34 33 32 31 31 31 31 32 31 31 31 30 30 30 30 30 30 29 29 29 28 28 28 28 28 27 27 26 25 25 24 25 24 23 24 24 24 24 24 25 24 25 25 24 24 25 24 25 25 24 24 23 23 23
34 33 33 34 33 33 33 34 35 35 32 32 35 35 34 35 35 35 33 29 30 29 25 27 30 25 22 29 36 35 33 35 35 33 32 32 31 31 31 32 31 31 30 30 30 30 30 30 30 29 29 29 28 28 28 28 27 27 27 26 25 25 24 24 24 23 23 24 24 24 24 24 24 25 25 24 24 24 24 24 24 25 24 24 23 24
34 34 34 34 33 33 34 36 35 34 34 34 34 34 35 35 35 35 33 29 28 26 23 25 28 24 23 27 32 33 32 33 35 34 33 33 32 32 32 32 32 31 31 30 30 31 31 30 30 29 29 28 28 28 27 27 27 27 26 25 25 25 24 24 24 24 23 23 24 24 24 25 24 24 24 24 24 24 24 24 24 24 24 24 24 24
34 34 33 33 34 34 35 35 34 34 35 34 34 34 34 35 35 34 32 29 25 23 24 26 27 26 23 25 30 32 32 34 36 35 34 33 33 32 32 32 32 32 31 30 30 30 31 30 30 29 29 28 28 27 27 27 27 26 26 25 25 25 24 24 24 24 23 23 24 24 25 24 24 24 24 24 24 24 24 24 24 24 24 25 25 24
35 33 33 34 34 35 35 34 34 34 34 34 35 34 30 29 30 28 27 27 24 22 24 27 28 26 22 25 32 35 36 36 36 35 34 34 33 32 32 32 33 32 31 30 29 29 30 30 29 29 28 28 27 27 27 26 26 26 26 25 25 24 24 24 24 24 24 23 24 24 24 24 24 24 24 24 24 24 24 24 25 24 24 25 25 25
34 35 35 35 34 35 34 33 33 34 34 34 33 30 25 24 24 23 23 24 23 23 26 28 27 25 23 28 34 37 37 36 35 34 34 34 33 32 32 32 32 32 32 31 30 29 29 29 29 29 28 28 27 26 26 26 26 26 26 25 25 25 24 24 25 24 24 23 24 24 25 24 24 24 24 24 24 24 25 25 25 25 24 24 25 25
29 34 36 35 34 34 34 32 30 31 33 33 31 27 24 23 23 22 23 23 23 23 26 28 27 24 24 30 36 37 36 36 34 34 34 33 33 32 31 32 31 31 32 31 31 30 29 29 29 29 28 27 27 27 27 26 26 26 25 25 25 25 24 24 24 24 24 23 24 24 24 24 24 24 24 24 24 25 25 25 25 25 25 25 25 25
24 27 33 34 34 34 36 34 33 34 34 34 35 32 26 24 23 22 23 23 23 23 24 26 25 23 23 30 36 37 36 36 34 34 33 32 31 31 31 32 32 31 31 31 31 30 30 29 29 29 28 27 27 27 27 26 26 26 25 25 25 25 24 24 24 24 24 24 24 24 24 24 24 24 24 24 24 25 25 25 25 25 25 25 25 25
24 25 33 36 34 35 35 36 37 36 32 34 38 33 27 28 27 24 23 24 23 23 24 24 25 27 30 34 37 37 36 36 35 34 33 31 31 31 31 31 32 32 31 31 31 30 30 30 29 29 28 27 27 27 27 26 26 26 25 25 25 25 25 24 24 24 24 24 24 24 23 23 24 24 24 24 24 24 24 25 25 25 25 25 26 26
23 25 35 36 34 36 36 36 37 34 31 33 32 28 30 35 32 25 23 25 24 22 24 24 24 28 31 33 36 36 36 35 34 34 34 32 31 31 31 32 32 32 32 31 31 30 30 30 30 29 28 28 27 27 27 26 26 26 26 25 25 25 25 24 24 24 24 24 24 24 24 23 23 23 24 24 23 24 24 24 24 25 24 25 26 26
27 26 34 36 34 35 35 35 36 36 34 32 28 30 35 36 33 28 23 23 23 22 23 24 24 25 25 27 34 36 35 35 35 35 34 32 32 32 32 32 31 32 32 31 31 31 30 31 30 30 29 28 28 27 27 26 26 26 26 26 25 25 25 25 24 24 24 24 24 24 24 24 23 23 23 23 23 23 24 24 24 24 24 25 25 26
31 25 30 37 35 34 36 34 32 34 36 34 32 35 34 27 26 26 23 23 23 22 23 23 24 24 23 26 32 34 35 36 34 34 34 33 33 33 33 32 31 31 31 31 31 31 31 31 31 30 29 29 28 27 27 26 26 26 26 26 26 25 25 25 24 24 24 24 24 24 24 24 24 23 23 23 23 23 23 23 24 24 24 24 25 25
33 26 26 34 37 35 35 33 29 30 34 35 34 36 35 29 26 26 25 25 23 22 23 23 23 24 26 30 33 34 36 36 34 35 35 34 34 33 33 33 32 31 30 30 31 31 31 31 31 30 30 29 28 27 27 26 26 26 26 25 25 25 25 24 24 24 24 23 23 23 23 23 23 23 23 23 23 23 23 23 23 24 24 24 24 25
34 28 24 31 36 33 31 33 32 31 33 32 30 30 31 31 30 29 27 26 24 23 23 23 22 23 29 35 36 36 36 35 35 35 35 34 34 34 33 32 32 31 30 30 31 31 31 31 31 30 29 29 28 27 27 27 26 26 25 25 25 25 25 24 24 24 24 23 23 23 23 23 23 23 22 22 22 23 23 23 23 23 24 24 24 25
32 30 25 27 29 28 30 36 37 35 35 33 31 30 30 30 28 26 25 26 26 24 23 24 22 24 32 36 35 36 36 35 35 34 34 35 34 34 33 32 31 31 31 31 31 32 31 31 31 30 29 28 28 28 27 27 26 26 25 26 25 25 25 24 24 24 24 23 23 23 23 22 23 22 22 22 22 22 22 23 23 23 23 23 23 24
32 31 27 25 28 31 35 38 36 35 36 35 34 35 35 33 28 23 22 24 25 24 25 24 22 26 34 36 34 35 34 33 34 34 34 34 34 33 33 31 30 30 31 31 31 32 31 30 30 29 29 28 28 28 27 26 26 26 26 26 25 25 25 25 24 24 23 23 23 23 23 22 23 22 22 21 21 21 21 22 23 23 23 23 23 23
31 30 26 24 29 34 36 37 36 35 35 33 34 36 36 34 32 29 28 27 25 23 24 24 22 26 33 34 33 34 33 33 33 33 34 34 34 33 32 30 30 29 29 30 30 30 30 29 29 28 28 28 28 27 27 26 26 26 26 25 25 26 25 25 24 23 23 23 23 23 23 23 22 22 21 21 21 21 21 21 22 22 22 23 22 22
29 29 26 23 24 27 29 30 31 32 33 33 34 36 35 35 35 33 31 29 26 23 24 24 22 25 33 34 34 34 33 33 33 33 34 34 33 33 31 30 29 29 29 29 29 29 29 28 28 27 27 27 27 27 26 25 25 25 25 25 25 25 25 25 24 23 23 23 23 23 23 23 22 21 21 21 21 21 20 21 21 21 22 22 22 22
29 29 28 23 22 23 23 24 25 28 31 33 34 35 35 35 34 31 28 25 24 24 25 24 22 26 33 35 34 35 35 34 34 34 34 34 33 33 32 30 29 29 29 29 28 28 28 28 27 27 27 27 26 26 26 25 25 25 25 25 24 24 25 25 24 23 23 23 23 23 23 23 22 21 21 21 21 21 20 20 21 21 21 21 21 20
31 31 29 25 24 24 24 26 30 31 30 29 31 33 34 35 35 32 27 24 24 24 23 25 26 26 31 35 36 36 35 34 34 34 34 34 33 32 31 30 29 29 29 28 28 28 28 27 27 27 27 26 26 26 25 25 25 25 25 24 24 24 24 24 23 23 22 23 23 23 23 22 22 21 21 21 21 20 20 20 21 21 21 21 21 20
30 28 29 28 27 29 30 30 33 33 29 29 31 32 33 35 34 31 27 26 28 25 22 27 29 26 29 36 37 34 33 33 33 35 35 34 33 32 31 30 30 29 29 29 28 28 28 28 27 27 26 26 25 25 25 25 25 25 25 25 24 24 23 23 23 23 22 22 23 23 22 22 22 21 21 20 20 20 20 20 21 20 20 20 20 20
29 27 29 30 28 31 33 33 33 33 31 32 32 32 33 34 32 30 29 31 31 25 24 28 29 28 31 36 36 34 33 32 32 34 34 34 33 33 31 30 30 30 29 29 29 28 28 28 27 27 26 25 25 25 25 25 25 25 25 25 24 23 23 23 23 23 23 22 22 22 22 22 22 21 21 20 20 20 20 20 20 20 20 20 20 20
28 27 30 30 28 30 33 32 33 32 31 31 32 33 34 34 33 32 32 34 33 29 30 32 29 31 34 35 34 33 32 31 31 32 33 33 33 32 31 31 32 31 30 30 29 29 28 28 27 27 27 26 25 25 25 24 24 24 24 25 24 23 23 23 23 23 23 23 23 22 22 22 22 21 21 20 20 20 20 20 20 20 20 20 20 20
28 27 31 30 26 27 32 32 32 32 31 30 31 34 35 33 33 33 33 34 33 31 33 33 29 31 34 33 32 33 32 32 31 31 32 33 33 32 32 32 32 31 31 30 30 29 28 28 27 27 27 26 26 25 25 25 24 24 24 24 24 24 23 23 23 23 23 23 23 22 22 22 21 21 21 21 21 20 20 20 20 20 20 20 20 20
28 28 30 29 24 24 30 31 31 32 31 28 28 31 33 32 32 32 33 34 32 30 31 30 27 29 32 31 32 33 33 33 32 31 32 33 33 33 32 33 33 31 31 31 30 29 29 28 27 27 27 27 26 26 25 25 24 24 24 24 24 24 23 23 23 23 23 23 23 22 22 21 21 21 21 21 21 20 20 20 20 20 20 20 20 20
29 28 28 27 23 23 29 31 30 29 27 25 27 30 32 32 33 34 34 34 33 32 30 27 27 29 30 30 31 32 32 32 31 30 31 31 32 32 32 33 33 32 31 31 30 29 29 28 28 28 28 27 26 26 25 25 24 24 24 24 24 24 23 23 23 23 23 23 22 22 22 21 21 21 21 21 21 20 20 20 20 20 19 19 20 20
28 27 27 27 23 22 27 30 28 25 22 24 29 31 31 32 32 32 31 30 30 30 30 29 29 30 29 29 30 30 30 30 30 29 29 30 31 31 32 32 32 32 32 31 30 30 29 29 29 28 28 27 26 26 25 25 24 24 24 24 24 24 24 23 23 23 23 22 22 22 22 22 22 21 21 21 20 20 20 19 20 20 19 19 19 19
27 27 27 27 24 23 26 26 23 22 23 27 31 30 30 31 32 30 29 28 28 28 28 29 29 28 28 29 29 30 30 30 29 29 29 30 30 31 32 32 31 32 31 31 30 30 29 29 29 28 27 27 26 25 25 24 24 24 24 24 24 24 24 23 24 23 23 23 22 22 22 22 22 21 21 21 20 20 20 20 20 20 20 20 19 19
27 27 27 26 25 24 24 23 22 23 28 31 30 29 29 30 30 29 27 27 27 27 27 27 27 28 28 28 29 30 30 30 30 29 29 29 30 30 31 32 32 31 31 31 30 30 30 30 29 28 27 26 26 25 25 25 24 24 24 24 24 24 23 23 23 23 23 23 23 22 22 22 22 21 21 21 21 21 20 20 20 20 20 20 20 20
27 27 26 25 25 24 22 22 23 25 27 28 28 28 28 28 27 27 25 25 26 27 26 26 27 27 27 28 28 30 30 30 30 30 30 30 30 30 31 32 32 32 32 32 31 30 29 29 28 27 26 26 26 25 25 24 24 24 24 24 24 24 23 23 23 23 23 23 23 22 22 22 21 21 21 21 21 21 20 20 20 20 20 20 20 20
27 27 26 24 24 25 23 22 23 23 23 24 26 27 28 27 27 27 26 25 25 26 26 26 26 26 26 27 28 29 30 31 31 30 29 29 30 30 31 31 32 33 33 33 32 30 29 28 28 27 26 26 26 25 25 24 24 24 24 24 24 24 23 23 23 23 23 23 23 22 22 21 21 21 21 21 21 21 21 20 20 20 20 20 20 20
27 27 27 25 24 24 23 21 22 22 22 24 26 27 27 27 28 27 25 23 24 26 26 25 26 25 25 26 27 28 30 30 29 28 28 29 29 30 30 30 31 33 33 32 32 31 30 28 27 26 26 26 26 25 24 24 24 24 24 24 24 24 23 24 24 23 23 23 22 22 22 21 21 21 21 21 21 21 21 21 20 20 20 20 20 20
27 27 26 24 22 23 23 22 23 23 23 24 25 26 27 28 28 26 23 21 23 25 25 25 25 25 25 25 26 27 27 27 26 27 28 29 29 30 30 30 30 31 32 33 32 31 29 27 27 27 27 27 26 25 24 24 24 24 24 24 24 24 24 24 23 23 23 22 22 22 22 22 22 21 21 22 22 21 21 21 20 20 20 20 20 20
25 26 25 24 23 23 22 22 23 23 23 24 26 26 27 27 26 23 21 21 23 24 25 25 25 25 25 25 26 26 26 26 26 27 28 29 29 29 29 30 30 30 31 32 31 30 29 28 28 28 28 27 26 25 24 24 24 24 24 24 24 24 24 24 23 23 22 22 22 22 22 22 22 21 22 22 22 21 21 20 20 20 20 20 20 19
23 24 24 24 23 23 23 22 23 23 22 24 26 26 26 25 23 21 21 23 23 24 25 25 25 25 25 25 25 25 26 26 27 27 28 29 28 28 28 29 29 29 30 30 29 29 30 30 28 28 28 26 25 25 24 24 24 24 24 24 24 24 24 23 23 23 22 22 22 22 22 22 22 22 22 21 21 21 21 21 21 21 21 20 20 20
23 22 22 23 23 23 22 22 22 22 22 24 25 25 24 23 22 21 22 23 24 24 24 24 25 25 24 25 25 25 25 26 27 27 28 28 28 28 28 28 28 28 29 29 28 29 30 30 28 28 27 26 25 25 25 24 25 25 24 24 24 24 24 23 23 23 23 22 22 22 22 22 22 22 22 21 21 21 21 21 21 21 21 20 20 20
23 22 22 23 23 22 21 21 21 22 23 24 24 23 22 22 22 22 22 23 23 23 23 24 24 24 24 24 25 25 25 26 26 26 27 27 28 28 28 28 28 28 28 29 29 28 29 29 28 27 26 26 25 25 24 25 25 25 25 24 24 24 24 23 23 23 23 23 23 22 22 22 22 22 22 21 21 21 21 21 20 20 21 20 20 20
22 22 21 22 23 23 22 22 23 23 23 24 24 23 23 22 22 22 22 22 23 22 23 23 23 23 24 24 24 25 25 26 26 26 27 27 27 27 27 28 28 28 28 28 27 27 27 28 27 26 25 25 25 24 24 25 25 25 25 24 24 24 24 23 23 23 23 23 23 22 22 22 22 22 22 22 22 21 21 21 21 20 20 20 20 21
22 22 22 22 23 23 23 24 24 23 23 24 24 24 24 23 22 22 22 22 22 22 22 22 22 23 23 24 24 25 25 25 25 26 26 26 27 27 27 27 28 28 28 28 27 26 26 27 26 26 25 25 24 24 24 24 25 25 25 24 23 23 24 23 23 23 23 23 23 22 22 22 22 22 22 22 22 22 22 21 21 21 20 20 20 21
23 22 22 22 23 22 22 23 24 23 23 23 24 24 24 23 23 22 22 22 21 21 21 22 22 22 23 23 23 24 24 25 25 25 26 26 26 26 26 27 27 27 27 27 26 25 25 26 26 26 25 24 24 24 24 24 25 25 24 24 24 24 24 23 23 23 23 23 23 22 22 22 22 22 21 21 22 22 22 22 22 22 21 21 21 21
22 21 22 22 22 22 22 23 23 23 23 23 23 23 23 23 23 23 22 22 22 22 22 22 22 21 21 22 23 23 23 24 25 25 25 26 26 25 26 26 26 26 26 26 26 25 25 26 26 26 25 25 24 24 24 24 24 24 24 24 25 24 24 23 23 24 24 23 23 23 22 22 21 21 21 22 22 22 22 22 22 22 22 21 21 21
22 21 22 22 21 22 23 23 22 22 23 23 23 23 23 23 22 22 22 22 23 23 23 23 22 21 21 21 21 21 22 23 24 24 25 25 25 25 25 26 26 25 26 26 26 25 25 25 26 26 26 25 24 24 23 24 24 24 24 25 25 24 24 23 23 24 24 24 23 23 23 22 22 22 22 22 21 21 21 21 21 21 21 21 21 21
22 21 22 21 21 21 22 22 21 21 21 22 22 22 22 22 22 22 22 22 23 23 23 23 23 23 23 22 21 21 22 23 23 23 24 25 25 24 25 25 25 25 26 26 26 26 25 25 25 25 25 25 24 23 23 23 24 24 24 24 24 24 24 24 24 24 24 24 24 24 23 23 22 22 22 22 21 20 20 20 20 20 20 20 20 20
21 21 21 21 20 21 21 22 21 21 20 21 22 22 22 22 22 22 22 22 22 23 23 23 23 23 23 23 23 23 23 24 24 24 24 25 25 24 24 25 25 26 26 26 25 25 25 24 24 25 25 25 24 23 23 23 24 24 24 24 24 24 24 24 24 24 24 24 24 24 23 24 23 23 22 22 21 21 21 20 20 20 20 20 20 20
Height
784 795 799 797 793 786 784 785 787 790 793 796 797 796 796 795 791 786 787 784 783 792 787 780 783 779 774 769 764 767 770 772 773 771 771 770 769 770 772 773 772 771 770 769 772 775 777 780 782 785 788 791 794 794 796 797 798 800 802 804 806 807 809 810 813 814 815 817 818 819 820 821 822 823 824 824 826 827 828 829 831 832 833 834 836 838
788 800 796 785 782 781 783 786 788 791 793 795 797 796 793 792 788 783 788 787 785 793 786 778 783 780 773 768 763 765 771 773 771 770 771 769 768 768 769 770 769 768 766 767 771 773 776 778 780 783 785 787 790 790 793 794 795 797 800 802 803 805 807 809 811 813 814 815 817 818 819 820 821 822 823 824 825 826 827 829 830 831 832 833 835 837
797 798 787 777 778 782 786 787 789 793 794 795 793 795 796 788 783 784 789 788 787 793 787 780 785 779 768 764 762 765 769 768 764 764 766 765 766 767 766 767 766 767 767 767 770 771 774 776 778 781 782 784 786 787 789 791 793 795 798 800 801 803 805 807 809 811 813 814 815 817 818 819 820 821 822 823 824 825 827 828 829 830 832 833 834 836
800 791 778 774 779 786 789 789 792 794 793 793 791 793 793 783 783 791 792 790 788 789 787 787 788 777 766 764 762 762 763 762 762 761 760 760 762 763 762 762 763 765 767 768 768 769 771 774 776 778 779 781 783 785 787 789 791 793 795 797 799 801 804 805 808 809 811 813 815 816 817 819 820 821 822 823 824 825 826 828 829 830 831 832 834 835
792 783 775 777 782 785 790 792 793 795 792 787 785 788 788 781 782 785 784 785 785 787 789 790 790 777 768 772 768 763 764 763 763 763 762 760 758 758 758 758 759 760 763 766 767 767 769 771 773 775 777 779 781 782 784 786 789 791 792 794 796 799 802 804 806 808 810 812 814 816 817 819 820 821 822 822 824 825 826 827 828 830 830 832 833 835
786 778 777 784 786 784 790 791 789 791 791 785 780 780 781 780 780 780 780 784 788 793 790 789 798 789 769 769 769 763 765 765 763 764 764 762 759 759 759 757 757 758 759 761 763 764 766 768 770 773 775 777 778 780 782 784 786 788 790 792 794 797 800 802 804 806 808 810 813 814 816 817 819 820 821 821 822 823 825 826 827 829 830 831 833 834
782 777 778 785 786 786 790 789 783 784 791 789 778 773 777 779 781 781 782 788 792 794 788 785 799 799 776 768 768 763 764 763 762 763 762 761 761 760 758 757 756 758 759 759 760 761 763 765 768 770 772 774 776 778 780 782 784 786 788 790 792 795 797 800 802 804 806 808 811 813 814 815 816 817 818 819 820 821 823 824 826 828 829 831 832 833
779 781 783 784 785 787 790 788 779 780 790 789 775 773 778 779 780 780 781 786 785 784 786 782 788 799 791 774 766 764 765 762 761 765 763 759 760 759 757 756 755 756 758 759 760 760 761 763 764 767 769 771 774 776 778 780 782 784 786 789 791 793 796 798 800 803 805 807 809 811 812 813 815 815 816 818 819 820 822 823 825 826 828 830 831 832
774 782 783 782 787 788 784 779 773 778 786 780 772 775 777 777 778 776 778 781 779 784 793 784 782 800 799 772 758 762 767 766 764 767 766 759 758 757 756 755 754 754 755 756 758 759 759 761 762 765 768 770 772 775 777 779 781 783 785 788 790 792 794 796 799 801 803 805 807 809 811 812 813 814 815 817 818 819 820 822 823 825 827 828 830 832
773 775 774 777 785 784 776 770 770 777 781 774 772 776 774 775 775 775 779 779 783 795 798 785 782 800 802 776 762 766 768 766 762 762 762 757 755 755 753 753 753 752 754 755 755 756 757 759 761 764 766 769 771 773 776 778 780 782 784 786 788 790 793 795 798 800 802 804 806 807 809 810 811 812 814 815 816 818 819 821 822 824 826 827 829 831
770 768 770 775 778 774 769 769 770 773 774 773 775 777 775 776 775 777 779 779 794 805 795 782 780 793 804 784 764 766 765 759 757 759 760 756 753 753 751 751 750 750 753 754 754 755 756 758 760 763 765 767 770 772 774 776 778 781 782 784 787 789 791 793 796 798 800 803 804 805 807 808 810 811 812 814 815 816 818 819 821 823 824 826 827 829
770 773 773 770 767 766 770 773 772 770 771 775 778 778 782 785 783 786 785 789 808 811 791 781 778 789 805 789 762 757 753 750 754 757 757 755 754 753 751 749 748 748 751 753 755 755 755 757 759 761 764 766 769 771 772 775 777 779 781 783 785 787 789 792 794 797 799 801 802 803 805 807 808 810 811 812 813 815 816 818 819 821 823 824 825 827
773 771 766 764 762 764 773 778 775 773 774 778 779 782 794 800 801 806 802 798 806 800 785 782 787 794 797 780 761 754 747 746 751 752 752 752 753 753 751 750 749 748 749 751 753 754 754 756 757 759 762 764 767 769 771 773 775 777 780 781 783 785 788 790 793 796 797 799 801 801 803 805 807 808 809 811 812 813 814 816 817 819 820 822 823 825
778 768 761 768 767 760 768 778 779 777 775 778 779 784 797 806 817 825 814 805 804 795 784 783 792 797 788 769 757 752 746 745 747 747 748 750 751 753 751 748 748 748 748 749 750 752 753 754 756 758 760 763 765 767 770 772 774 777 778 780 782 784 786 789 791 794 796 797 799 800 801 803 804 806 807 809 810 811 812 813 815 816 818 820 821 822
790 783 766 766 766 758 762 766 765 764 767 770 765 771 785 791 808 819 811 808 806 796 791 792 795 793 785 770 753 745 743 742 744 744 745 749 749 751 750 748 748 748 748 748 748 750 751 752 755 757 759 762 764 767 769 771 774 775 777 779 781 783 785 787 789 792 794 795 797 798 799 801 802 804 805 807 808 809 810 811 813 814 815 817 819 820
792 786 760 755 757 756 760 756 751 761 771 765 756 770 780 773 781 795 794 793 794 796 795 794 791 777 766 757 742 739 741 740 744 744 745 750 749 750 751 749 748 747 747 747 748 749 750 751 754 756 758 761 763 766 768 770 772 774 776 778 779 781 783 785 787 789 791 793 794 796 797 799 800 802 803 804 805 807 808 809 810 812 813 815 816 818
789 781 757 755 758 752 755 753 749 762 773 767 766 775 768 754 762 783 792 784 788 805 798 786 785 771 763 761 748 744 748 747 749 746 745 750 749 750 752 749 748 747 746 747 747 748 749 750 752 755 757 760 762 765 767 769 771 772 775 776 778 780 781 783 785 787 789 791 792 793 795 796 798 799 800 801 803 804 806 807 808 809 811 812 813 815
782 781 760 756 763 753 748 753 752 752 758 768 775 767 754 756 762 776 796 795 798 812 798 783 787 781 780 778 758 750 753 752 752 747 746 750 750 750 749 747 748 746 745 746 746 747 748 749 752 754 756 759 761 764 766 768 770 771 773 775 776 778 780 782 783 785 787 789 790 792 792 794 795 797 798 799 800 802 803 805 805 807 808 809 811 812
776 786 767 751 760 757 748 757 764 756 751 759 762 754 758 778 782 781 796 802 805 813 802 788 787 784 786 780 762 757 754 752 755 751 747 749 748 749 747 746 747 746 746 748 747 747 748 748 751 753 755 758 760 763 765 767 769 770 772 773 775 777 779 781 782 784 786 787 788 790 790 792 793 794 795 796 797 799 800 802 803 804 805 806 808 809
772 788 781 756 753 757 755 761 769 766 757 756 757 754 756 769 776 777 782 785 794 807 805 797 793 786 778 766 758 758 751 749 754 749 745 746 744 746 746 745 746 747 748 748 747 747 746 747 750 752 755 757 759 762 764 766 768 769 771 773 775 777 778 780 782 783 785 786 787 788 788 789 790 791 792 793 794 796 797 799 800 801 802 803 805 806
770 784 788 766 753 762 765 760 760 762 760 762 767 766 763 763 766 770 772 770 779 795 801 803 803 787 765 754 752 750 746 745 746 745 745 744 741 742 742 743 745 746 747 747 746 745 745 747 749 752 755 757 759 761 763 765 767 769 771 772 774 776 778 779 781 782 784 784 785 786 787 787 788 789 789 789 791 792 794 795 796 798 799 800 801 802
772 779 784 774 765 767 762 748 747 752 754 758 761 759 760 762 768 782 787 773 769 781 785 792 800 781 752 745 747 743 743 743 742 744 744 741 741 741 740 742 744 744 745 745 744 744 745 747 749 752 754 756 758 760 762 764 766 768 770 772 774 775 777 778 779 781 782 783 784 784 785 786 786 786 787 787 788 789 791 792 793 794 795 796 798 799
770 775 780 778 768 760 750 741 744 748 747 751 753 748 749 753 762 783 794 780 771 776 772 777 795 781 747 739 744 741 742 743 741 742 741 740 740 739 740 742 742 743 744 743 742 743 744 747 749 751 754 756 758 759 761 763 765 767 769 771 773 774 775 777 778 779 781 781 782 782 783 784 784 784 784 784 785 785 787 789 789 790 791 792 794 796
772 778 782 779 765 753 746 742 744 745 748 755 754 748 749 751 753 761 768 768 773 780 776 781 797 784 752 740 743 741 741 742 741 741 739 739 738 738 740 742 743 744 744 743 743 743 745 747 749 751 754 755 757 758 761 763 764 766 768 770 772 773 774 776 777 778 779 780 781 781 781 781 781 781 781 781 781 782 783 784 786 787 788 789 791 793
777 780 783 786 783 774 767 763 761 756 754 755 751 749 751 751 751 755 757 762 772 775 773 782 793 780 754 743 741 741 742 741 740 739 737 737 738 739 740 742 743 745 744 745 745 745 746 748 749 751 753 754 756 758 760 762 764 765 767 768 770 771 773 775 776 777 778 778 779 779 779 779 779 779 778 778 778 778 779 779 781 783 784 786 787 790
778 780 781 791 797 794 791 787 779 767 758 753 751 753 754 752 755 760 763 771 780 779 775 781 786 775 756 747 744 742 743 742 739 738 737 736 738 738 739 742 743 744 745 745 746 746 747 748 749 751 752 754 756 757 760 762 763 765 766 767 769 771 772 773 775 776 776 777 777 777 777 776 776 776 776 776 775 775 775 776 777 779 780 782 784 788
777 778 778 787 791 786 785 781 770 762 762 761 757 755 755 753 753 757 766 775 779 782 782 776 774 774 763 749 742 743 745 744 740 738 737 737 738 738 739 741 742 743 744 744 745 746 747 748 749 750 752 754 755 757 759 761 762 764 765 767 768 770 771 772 773 774 775 776 776 776 775 774 774 774 774 773 772 772 772 772 773 774 775 778 781 785
781 781 776 781 781 773 771 768 761 761 766 763 757 754 753 754 754 757 766 770 769 779 784 771 768 776 767 747 742 747 749 747 742 738 736 737 737 737 739 741 742 743 744 744 745 746 747 748 749 749 752 754 755 757 759 760 762 763 764 766 767 769 771 771 772 773 773 774 774 774 774 773 772 772 771 771 770 769 768 768 768 769 771 773 777 781
784 782 773 775 776 768 764 763 761 763 764 760 757 754 751 753 757 759 760 758 762 774 778 771 770 770 758 744 744 749 749 746 744 738 734 735 736 736 739 742 742 743 744 745 745 745 746 748 748 749 751 753 755 757 758 759 761 762 763 765 766 768 769 770 771 771 772 772 773 773 772 772 771 770 769 769 768 767 765 764 764 766 767 770 773 777
782 781 774 775 777 769 763 762 762 763 763 761 757 752 750 752 754 756 755 752 755 760 759 762 769 762 749 746 747 745 744 743 743 739 736 736 737 738 740 741 741 742 743 744 744 744 745 746 747 748 750 752 755 756 757 759 760 761 762 763 765 767 767 768 769 769 770 771 771 771 771 770 770 769 768 767 766 764 762 760 760 763 765 768 771 774
781 783 775 775 779 772 762 760 761 761 763 763 758 751 750 753 753 754 755 752 755 757 752 755 764 759 747 745 745 742 740 740 742 742 739 737 737 738 740 740 740 741 742 742 743 743 744 745 746 748 749 751 753 754 756 757 758 760 761 762 764 765 766 767 768 768 768 769 769 769 769 769 769 768 767 765 764 762 758 753 755 760 764 766 769 772
783 783 775 776 785 777 762 761 762 758 759 762 760 754 751 752 754 752 750 749 753 757 756 759 767 767 755 747 746 742 739 740 743 743 740 737 736 737 739 738 738 740 740 740 742 742 743 745 745 747 748 750 752 753 754 756 757 759 760 761 763 764 765 766 766 766 767 767 768 768 768 768 768 767 766 764 762 761 757 753 755 760 764 765 768 771
783 786 780 780 789 780 764 762 763 763 770 772 763 756 754 752 750 747 745 748 751 754 760 765 768 765 757 751 750 747 744 745 746 744 742 741 738 737 737 736 736 738 738 738 740 741 742 743 743 745 747 748 750 752 753 754 756 757 758 760 761 762 764 765 765 765 766 766 767 767 767 767 767 766 766 764 763 762 760 759 759 762 764 766 768 770
784 788 784 782 789 785 768 762 768 778 786 778 758 753 756 755 754 755 757 760 759 758 760 762 762 759 756 756 755 752 749 747 746 745 743 741 740 739 737 735 735 736 736 736 737 738 739 740 742 744 746 748 749 751 752 753 755 756 758 759 760 762 763 764 764 764 765 766 766 766 766 766 766 766 766 765 765 764 763 762 763 764 766 767 769 771
787 788 786 783 787 784 769 771 790 796 781 763 753 752 754 752 753 760 765 767 766 765 764 763 763 761 758 756 754 750 748 745 744 744 742 739 739 738 737 736 736 735 735 736 736 737 737 739 741 744 745 747 749 750 751 753 754 756 757 758 760 761 762 763 763 763 764 765 765 765 765 765 766 766 765 765 766 766 765 765 765 766 767 768 770 771
786 786 786 783 784 784 780 784 796 787 763 753 756 755 754 757 759 763 770 772 770 769 770 769 766 763 759 756 752 747 744 743 743 743 741 739 738 737 736 735 734 734 734 734 735 735 736 738 741 743 745 747 748 749 751 752 753 755 756 758 760 760 761 762 762 762 763 763 764 764 764 764 765 765 765 766 766 766 766 766 766 767 768 769 771 772
781 784 785 785 782 782 784 780 776 768 762 763 766 762 761 766 768 768 775 778 773 769 770 771 769 765 761 757 752 746 741 742 746 744 740 739 737 735 734 731 730 731 731 731 732 734 736 738 740 742 744 746 748 749 750 751 752 754 755 757 759 760 760 761 761 762 762 762 763 763 763 764 764 765 765 765 766 766 766 767 767 767 768 769 771 771
778 780 783 787 782 776 780 781 777 776 778 776 772 766 762 763 764 765 772 779 776 771 770 771 770 768 765 760 754 747 740 745 753 751 744 741 738 734 733 730 728 727 727 728 731 733 736 738 740 741 744 745 747 748 749 751 752 753 754 756 757 759 760 760 760 761 761 761 762 762 762 763 763 764 764 765 765 765 766 766 767 767 768 769 770 771
776 777 778 785 783 775 780 787 781 778 782 780 775 767 760 759 760 762 773 783 781 774 771 772 772 770 768 764 758 751 749 756 763 758 748 743 738 734 733 732 728 727 727 728 730 732 734 737 739 741 742 744 745 747 748 750 751 752 753 755 756 757 758 758 759 759 760 760 761 761 761 762 762 763 763 764 764 765 765 766 767 767 768 769 769 770
778 778 779 786 785 777 780 782 773 771 780 781 774 767 761 757 758 769 787 795 786 776 773 774 774 773 770 767 762 760 763 768 768 760 749 743 739 735 734 733 731 729 728 728 729 731 733 736 738 739 741 742 744 746 747 749 750 751 753 754 755 756 757 757 758 758 759 759 759 760 761 761 761 762 762 763 763 764 765 765 766 767 768 768 768 769
781 779 779 782 779 774 778 779 770 773 784 780 770 767 763 757 764 782 797 796 785 778 775 774 774 774 772 770 767 767 767 766 762 756 748 743 741 738 735 733 732 731 730 729 729 731 732 734 736 737 739 741 742 744 746 747 749 751 752 753 754 755 755 756 757 757 758 758 759 759 760 760 760 761 762 762 763 763 764 765 765 766 767 768 769 770
788 786 781 780 778 773 775 776 772 778 786 779 769 766 764 767 781 793 793 787 782 779 777 775 775 774 772 771 770 768 766 761 757 754 749 745 743 740 737 735 734 733 732 732 732 732 731 732 735 736 737 739 741 742 744 746 747 749 751 752 753 754 755 756 756 756 757 758 758 759 759 759 760 760 761 761 762 762 763 764 764 765 766 767 768 769
794 794 785 780 783 782 780 782 785 789 787 777 771 772 774 780 791 793 788 783 781 779 778 777 775 774 773 772 770 768 765 761 758 755 751 747 744 741 740 738 737 735 734 733 733 732 731 731 733 735 736 738 740 741 743 744 746 747 749 751 752 753 755 755 756 756 756 757 758 758 759 759 759 759 760 760 760 761 762 762 763 764 764 765 766 767
795 798 793 787 788 791 792 794 795 793 785 777 779 785 786 787 789 788 787 785 782 780 780 778 776 774 773 772 770 768 765 762 760 756 752 749 746 743 742 740 738 737 736 734 733 732 732 732 732 734 736 738 739 741 742 743 744 746 747 749 751 752 754 755 755 756 756 757 757 758 759 759 759 759 760 759 760 760 761 762 762 763 763 764 765 765
798 798 799 797 792 791 793 792 788 786 783 780 782 785 786 786 786 787 787 786 784 783 781 779 778 775 772 771 769 767 765 763 760 756 754 751 747 745 744 742 740 739 737 736 735 734 733 732 732 733 735 737 739 741 742 743 743 744 745 747 748 750 752 753 754 755 755 756 757 758 759 759 759 759 760 760 760 760 760 761 761 762 762 763 763 764
795 795 797 798 792 789 788 785 782 784 785 782 781 782 783 784 785 785 786 786 785 784 782 780 779 776 773 771 769 767 766 763 760 757 754 752 749 746 745 743 741 740 738 737 737 736 734 733 733 733 734 736 738 739 740 741 742 743 744 745 746 748 750 751 753 754 755 756 757 757 758 759 759 759 760 760 760 760 760 761 761 761 762 762 762 763
793 795 796 795 794 795 794 786 782 786 786 783 782 782 782 782 783 783 785 785 784 783 781 780 778 776 774 772 770 769 766 763 761 759 755 752 750 748 746 744 743 741 740 738 737 737 735 734 734 733 734 735 736 737 738 740 741 742 743 744 745 746 748 750 752 753 754 755 756 757 758 758 758 759 759 759 760 759 760 760 760 760 761 761 762 762
796 799 798 795 795 797 794 786 783 785 784 782 782 783 783 783 783 782 783 782 781 780 779 778 777 777 776 773 770 769 767 763 762 761 756 752 751 749 747 746 744 742 741 739 738 737 736 735 734 734 733 733 733 734 736 738 739 740 741 742 743 745 746 748 750 751 752 753 754 755 756 757 758 758 758 759 759 759 759 759 759 759 760 760 761 761
798 799 797 796 797 795 789 785 787 788 785 781 781 782 783 783 783 782 781 780 779 777 776 775 774 775 776 774 771 769 768 765 764 762 757 753 751 750 749 747 745 743 741 739 738 737 736 736 734 733 733 732 732 732 733 734 735 736 737 738 740 742 743 745 746 748 749 751 752 753 754 756 756 757 757 758 758 758 758 758 759 759 759 760 760 761
798 799 795 797 800 796 790 789 792 794 792 786 783 783 783 781 781 781 780 779 778 776 775 773 771 770 770 769 768 767 766 765 764 764 759 752 749 750 750 748 746 743 741 739 738 737 736 736 735 733 732 732 732 731 731 731 732 733 734 736 737 738 740 741 742 744 746 748 749 750 752 753 754 755 756 756 757 758 758 758 758 759 759 759 760 760
797 798 797 799 800 796 791 790 791 793 793 788 784 783 781 780 780 780 779 778 776 774 773 772 770 768 767 766 765 764 763 761 761 760 756 750 748 749 750 749 746 743 741 740 738 737 736 736 735 734 732 731 731 731 731 730 730 730 732 733 734 735 737 738 740 740 741 743 745 747 749 749 750 752 753 754 755 757 757 758 758 758 759 759 759 760
Wind_Speed
4 6 8 8 8 7 5 4 5 6 5 8 8 8 8 8 5 2 2 2 2 6 7 6 9 10 11 9 5 8 10 9 10 10 9 8 8 8 9 9 10 10 8 8 10 11 12 13 13 13 12 14 15 15 16 17 17 16 15 14 14 14 14 14 13 12 11 10 9 8 8 8 8 9 10 11 12 12 13 15 16 16 15 15 16 15
4 8 9 10 7 3 1 2 4 6 7 8 8 8 7 7 6 2 3 2 1 4 6 6 9 11 11 10 5 8 10 10 10 11 11 11 10 9 10 11 11 10 8 8 9 11 12 12 13 13 13 14 16 16 17 17 17 17 16 15 15 15 15 15 15 13 11 11 9 8 8 8 9 9 10 11 12 12 13 15 16 15 15 15 16 15
7 11 11 9 3 1 2 3 6 8 9 9 8 7 6 6 5 1 4 2 2 3 6 7 10 11 10 9 6 9 10 9 9 11 11 11 11 11 11 12 12 11 10 10 10 11 12 13 13 14 13 15 16 16 17 16 16 17 16 15 15 16 16 15 15 14 12 11 10 9 8 8 8 9 10 10 11 12 13 15 15 15 15 16 16 16
7 6 7 6 4 6 6 4 6 8 8 9 8 7 6 5 5 1 4 3 4 4 8 9 10 9 7 7 7 8 9 8 8 11 11 11 12 12 12 11 12 13 12 12 11 11 12 13 14 14 14 14 15 16 16 16 16 16 16 17 17 16 16 15 16 15 12 12 11 9 7 7 7 8 9 9 10 12 13 14 14 14 15 16 16 16
6 2 3 3 6 8 7 6 8 8 7 9 10 9 8 6 7 5 2 2 5 6 5 7 8 4 2 4 4 5 6 8 8 10 11 12 12 12 12 12 12 12 12 12 12 11 11 13 14 15 14 14 16 17 16 16 16 16 16 18 18 17 16 16 17 16 14 13 13 11 9 8 8 8 9 10 11 13 14 15 15 14 15 16 16 16
6 5 6 4 6 7 7 7 8 8 7 8 9 9 9 10 10 8 6 6 6 4 2 4 7 1 1 3 2 4 5 7 8 10 11 12 11 11 12 12 12 11 11 11 11 11 11 13 14 15 15 16 16 17 17 16 16 16 16 18 18 17 16 16 17 18 16 14 15 14 12 11 11 11 12 12 13 14 15 15 15 15 16 16 16 16
4 4 6 6 5 7 7 7 7 6 8 5 3 1 5 9 9 8 6 6 6 2 2 2 6 4 2 2 2 1 4 5 7 9 10 10 10 11 11 11 11 10 11 10 10 10 11 12 14 15 17 17 17 17 16 16 16 16 16 17 18 17 17 17 17 18 17 15 16 15 13 12 12 12 13 14 14 14 15 14 15 16 16 16 16 15
5 7 8 8 7 7 7 6 6 6 9 3 6 4 5 7 8 7 7 6 5 3 2 4 4 5 4 2 2 4 5 4 3 3 8 9 10 11 11 11 11 10 10 10 10 11 11 12 14 15 17 17 17 16 16 16 16 16 16 16 17 17 16 16 17 19 18 16 16 15 13 12 12 12 12 14 14 13 14 14 15 16 16 16 16 15
5 9 10 10 7 6 6 4 3 6 9 2 7 4 5 5 7 6 7 5 3 4 4 3 2 5 5 2 3 4 4 5 2 3 5 7 9 10 10 11 11 10 10 9 10 10 11 12 14 15 15 15 15 15 15 16 15 15 15 15 16 17 16 16 17 19 18 16 16 15 13 12 12 11 11 13 14 13 14 15 15 15 16 16 16 15
2 3 4 7 6 6 6 2 1 6 6 3 4 4 3 3 4 4 6 4 2 5 5 1 2 5 4 4 2 2 2 4 3 4 2 2 5 8 9 10 10 9 9 9 10 10 11 12 13 12 12 13 14 14 15 14 14 14 14 15 17 17 16 16 17 18 18 17 16 15 15 14 13 12 11 12 14 14 14 15 16 15 15 16 16 16
4 2 1 5 7 7 5 2 2 6 5 2 4 7 5 4 3 3 3 3 4 6 4 3 4 5 4 3 2 1 3 4 1 2 1 2 3 4 6 8 9 9 8 8 9 9 10 11 10 10 11 12 12 13 13 14 14 14 14 15 17 17 16 16 17 18 18 17 17 16 16 15 14 13 13 13 14 15 15 15 16 16 15 15 16 16
9 7 5 6 9 9 7 5 4 5 5 4 6 6 5 4 4 4 4 3 6 6 2 2 3 5 5 3 3 4 3 3 2 2 2 1 3 2 3 5 6 8 8 7 8 8 8 9 9 10 11 12 12 13 13 14 14 14 14 15 17 17 16 16 17 18 18 17 17 17 17 16 15 14 14 14 14 15 15 16 16 16 16 15 16 17
8 10 9 8 8 9 9 7 6 6 6 6 6 5 6 5 4 5 5 5 7 3 1 0 1 4 5 2 6 9 5 1 1 3 4 0 3 3 2 4 4 5 7 7 8 8 8 8 9 11 12 12 13 13 14 14 14 14 14 15 16 17 17 16 17 17 19 19 18 18 18 17 16 15 15 14 15 15 16 16 17 17 17 17 17 17
6 8 10 9 7 10 11 7 6 6 7 8 7 6 7 6 5 6 5 5 5 1 2 1 2 5 4 1 5 8 4 3 1 1 1 0 2 3 3 4 6 6 7 7 7 8 8 8 8 10 11 11 11 12 12 12 13 13 13 15 16 16 17 17 17 18 20 20 19 18 18 17 16 16 16 15 15 16 16 16 18 18 18 18 18 19
5 4 9 9 6 9 13 12 9 6 4 7 7 7 7 6 6 6 5 4 4 1 2 3 3 4 2 1 4 6 2 1 2 1 1 2 3 3 3 4 6 7 7 6 7 7 7 8 8 9 9 10 9 10 10 11 11 12 12 14 16 15 16 17 18 18 19 19 19 18 18 17 16 17 17 16 15 16 16 16 18 18 19 19 19 20
7 5 4 6 3 6 10 10 9 9 6 5 5 7 8 6 5 5 5 5 5 3 2 3 3 3 5 6 6 6 4 2 2 3 4 4 6 5 4 5 6 6 6 6 6 7 7 7 8 9 9 9 9 9 11 11 12 12 12 13 15 15 16 17 18 18 18 19 19 19 19 18 16 16 16 16 16 17 17 17 17 18 19 19 19 20
6 2 6 6 6 7 6 5 6 8 6 3 5 8 5 4 6 5 4 4 5 6 3 1 4 2 2 5 4 5 3 1 2 4 6 5 7 6 5 5 5 6 6 6 6 6 6 7 8 9 9 9 9 10 11 11 12 12 12 13 14 15 15 16 17 18 18 18 19 19 19 19 18 17 17 18 18 18 18 18 17 17 18 19 20 20
5 3 6 7 6 6 2 4 6 8 7 5 4 4 2 2 5 4 4 4 4 6 2 2 6 4 1 0 1 5 4 3 2 3 6 6 7 6 5 6 6 6 6 6 6 6 6 7 8 9 9 9 10 10 11 11 11 11 12 12 13 14 15 15 15 15 16 16 18 18 19 20 20 20 20 20 19 19 19 19 18 18 18 19 20 20
4 6 5 6 4 5 4 5 6 6 9 9 4 2 3 4 4 4 5 6 4 5 3 2 4 3 2 3 3 5 4 4 1 4 5 6 6 6 5 6 7 6 6 6 6 6 6 7 8 9 10 10 10 9 10 10 10 10 11 10 11 12 12 13 13 13 13 15 17 18 19 20 21 22 23 22 21 20 20 20 20 20 19 19 20 21
3 5 3 5 4 4 5 6 5 5 8 8 6 5 5 4 3 3 4 5 4 5 4 1 3 1 2 3 5 5 4 1 4 5 4 4 5 6 5 6 6 6 6 6 7 7 7 8 9 10 9 10 10 9 9 10 10 10 9 9 9 9 9 9 10 11 12 13 15 16 18 20 21 22 23 23 22 21 21 22 21 21 22 21 20 22
4 4 3 4 5 5 6 5 4 2 3 6 7 7 6 3 3 3 4 5 5 5 5 3 5 2 4 2 7 5 3 0 2 3 3 3 5 5 5 5 6 6 6 6 7 7 7 7 8 9 9 9 9 9 9 9 9 10 9 8 8 8 8 8 9 10 10 12 13 14 16 18 19 21 22 22 23 23 22 23 23 22 22 22 21 22
4 4 5 5 6 7 5 2 2 5 4 5 6 7 7 6 5 5 4 5 5 6 5 4 5 2 4 2 6 4 2 1 2 2 3 4 5 6 5 6 6 6 6 7 7 6 6 7 8 9 8 8 9 9 9 9 9 9 9 8 8 8 9 9 9 9 10 11 12 13 15 16 18 19 21 21 23 24 24 24 25 25 24 24 23 22
3 4 6 7 7 9 6 0 3 6 6 8 8 6 7 6 6 7 5 3 4 5 4 3 4 3 2 2 1 3 2 0 1 3 4 4 6 6 6 6 6 5 5 6 6 5 5 6 7 7 8 8 8 8 9 9 9 9 9 8 8 8 8 8 8 8 10 11 11 13 14 15 17 19 20 20 21 24 26 25 25 26 26 26 25 25
1 4 6 7 7 8 6 2 3 4 5 8 7 6 7 7 6 7 5 3 4 4 4 4 4 3 1 0 1 1 1 1 3 5 5 5 5 6 7 6 6 5 5 5 5 4 5 6 6 6 7 7 8 8 8 8 8 8 8 7 6 6 7 7 7 7 9 10 10 11 12 14 16 18 20 20 20 23 26 27 26 26 27 26 25 28
2 2 4 6 7 8 7 6 4 4 6 7 5 5 6 7 8 7 4 4 5 4 5 6 3 1 1 2 2 1 2 3 4 5 6 5 5 6 6 6 6 6 6 6 6 5 5 6 6 6 6 7 7 7 8 8 8 8 8 7 6 5 6 7 6 7 8 9 10 10 12 14 15 16 18 19 20 22 26 29 28 26 26 26 26 28
3 3 3 5 7 7 6 4 3 2 4 6 5 5 6 7 9 7 3 5 5 3 5 7 4 3 4 5 3 1 4 4 3 5 5 4 4 5 5 6 6 6 6 6 6 6 6 5 5 6 6 6 6 7 7 8 8 7 7 6 6 5 6 7 7 8 9 9 9 9 11 13 12 13 15 17 21 24 26 28 27 25 28 31 29 27
4 4 4 4 6 7 7 6 6 5 6 9 9 9 8 7 7 6 4 4 3 2 3 5 5 7 10 9 2 4 6 5 2 5 6 5 5 5 5 5 6 5 5 6 6 6 6 5 6 6 7 7 7 6 7 7 7 7 7 7 6 6 6 8 8 8 9 9 9 9 10 11 11 11 13 15 18 21 25 27 26 24 28 32 31 27
5 4 3 4 7 9 9 10 8 7 8 11 11 11 10 7 7 9 6 2 1 5 4 2 4 7 10 8 5 8 9 8 5 4 5 5 5 6 5 5 6 6 5 5 5 6 6 6 6 6 7 7 7 7 6 6 6 6 7 7 7 7 7 8 8 9 9 9 9 9 9 9 9 10 13 14 15 18 22 27 29 26 26 30 32 30
5 5 2 4 9 10 9 8 7 8 9 10 12 12 10 9 8 10 9 4 3 7 5 1 6 10 8 7 8 9 9 8 6 5 3 3 4 5 6 6 7 7 6 6 6 6 5 5 6 6 7 8 7 7 6 6 6 6 7 7 7 8 8 8 9 9 9 9 9 9 8 8 7 9 11 13 14 17 21 26 29 29 26 27 31 32
4 4 3 6 11 11 9 6 4 7 9 10 12 13 10 9 10 10 10 7 7 11 7 4 9 10 4 5 8 9 8 6 5 5 4 4 5 5 6 7 7 7 7 6 6 5 5 5 6 6 7 8 8 8 7 7 7 7 8 8 8 9 9 9 9 9 9 9 10 9 7 6 7 8 9 11 13 16 22 27 30 29 24 22 27 30
3 3 4 7 9 10 8 6 5 6 7 10 12 13 11 11 11 10 9 8 8 11 8 6 9 6 4 7 8 8 7 5 4 4 4 5 6 6 6 7 7 6 7 6 5 5 5 5 6 6 7 7 7 7 8 7 7 8 8 8 9 9 9 8 8 9 9 9 9 7 5 5 6 8 8 9 10 13 17 20 26 27 23 22 25 28
5 5 5 6 8 8 7 7 7 8 9 11 13 13 13 12 10 9 8 7 7 8 7 5 5 4 6 9 10 9 8 8 6 5 3 4 4 6 7 6 6 7 6 6 5 5 5 5 6 6 6 7 7 7 8 8 8 8 8 8 9 8 8 8 8 8 8 7 7 5 4 4 5 7 7 7 7 7 6 6 20 22 21 23 25 25
5 5 5 5 7 8 7 7 7 8 10 11 8 6 6 8 10 11 7 1 3 5 5 3 2 4 7 10 11 10 11 10 7 5 3 3 3 4 5 4 5 6 6 6 6 6 6 5 5 6 6 7 7 7 8 8 8 8 8 8 8 7 7 7 7 8 7 5 5 4 5 5 4 5 5 5 4 3 4 8 14 17 18 21 22 22
5 5 5 5 5 8 9 7 7 10 10 5 2 6 5 4 6 5 2 8 9 7 4 3 5 8 9 10 11 11 11 10 7 6 5 5 4 4 5 4 4 6 6 5 6 6 5 5 5 6 6 7 7 7 7 7 7 7 6 7 7 7 7 7 7 7 5 4 4 4 4 4 4 2 2 2 3 3 5 8 11 13 15 16 18 18
7 6 5 4 5 8 8 6 9 11 6 3 7 8 6 4 5 7 10 12 12 10 9 8 9 11 11 10 10 10 9 7 6 5 5 5 5 5 5 4 4 6 6 6 6 6 6 6 6 6 6 7 7 7 7 7 8 7 7 7 7 7 6 6 6 5 5 4 4 4 4 3 2 2 1 1 2 3 5 8 10 12 13 14 16 17
8 7 5 5 6 6 7 8 10 8 2 7 6 8 8 5 4 4 7 11 13 12 11 10 10 11 12 11 10 10 7 4 3 6 8 9 7 6 5 4 4 6 6 6 6 6 6 6 6 6 7 7 8 8 7 8 8 8 8 7 7 6 6 5 5 4 4 4 4 4 3 1 1 2 2 3 3 4 5 7 9 11 12 14 15 16
8 6 5 6 6 6 8 9 10 8 5 5 4 8 7 5 5 3 2 8 12 11 10 10 11 12 13 12 12 12 7 2 4 6 11 13 11 9 7 5 4 5 7 7 7 7 7 7 7 7 7 8 8 7 7 8 8 8 8 7 6 6 6 5 5 4 4 5 4 4 3 2 1 2 3 3 4 4 5 6 7 9 11 12 14 15
7 6 5 6 6 6 8 8 9 11 9 1 5 7 6 4 3 3 2 4 9 12 12 11 11 13 14 13 15 14 6 4 3 6 12 16 15 12 9 7 5 5 7 8 8 9 9 8 8 8 9 9 8 7 7 8 8 9 9 8 6 6 6 5 5 5 5 4 5 4 4 3 3 4 4 4 5 5 5 6 6 7 8 9 11 12
6 6 5 7 7 6 8 8 9 9 4 4 8 8 7 5 1 3 5 2 6 11 11 11 12 13 14 14 14 13 6 1 3 7 12 16 16 13 11 7 5 5 6 8 9 10 10 9 9 9 9 9 9 8 8 8 8 8 8 7 6 6 6 5 5 5 5 4 5 5 6 5 5 5 5 5 5 5 6 6 6 7 7 8 10 11
6 5 6 7 8 8 8 8 7 3 3 8 10 9 9 6 2 6 7 2 6 10 9 10 12 12 13 13 11 10 8 6 6 8 12 15 14 12 12 8 5 4 5 8 9 11 11 11 10 10 10 10 10 10 9 9 8 8 7 6 6 6 5 5 5 5 5 5 5 6 6 7 6 6 5 5 6 5 5 6 7 8 8 9 11 11
5 5 5 7 8 8 9 9 6 1 5 10 11 9 10 7 4 6 3 1 6 9 8 9 10 10 12 11 8 7 7 6 7 9 12 13 12 13 14 11 6 4 4 4 7 11 11 10 10 9 10 10 11 11 11 9 9 8 7 6 6 6 5 5 5 5 5 5 5 6 6 7 7 7 6 5 6 6 6 6 6 8 8 9 10 10
4 3 5 6 6 6 6 7 7 3 6 12 11 7 9 7 4 1 3 4 6 7 8 9 9 9 11 10 8 8 8 8 9 10 11 12 12 13 14 13 9 5 4 2 2 7 9 10 10 10 10 12 12 12 11 10 9 8 8 7 6 6 5 5 5 5 5 5 5 5 6 6 6 7 7 7 7 7 6 6 6 6 7 8 9 9
2 4 5 4 3 5 6 7 7 3 6 13 10 6 8 5 1 2 4 5 6 7 7 7 8 9 11 10 9 10 10 10 10 10 11 12 12 12 13 13 12 8 5 4 3 5 7 8 10 10 11 12 13 13 12 11 10 9 8 7 6 5 5 5 6 6 5 5 4 4 4 4 5 6 7 8 8 7 6 7 6 6 7 6 7 8
2 3 4 2 3 4 5 3 3 2 6 11 8 5 6 6 4 4 5 5 6 7 7 7 7 9 11 11 11 11 10 10 10 10 11 11 11 12 12 12 12 11 8 6 3 2 4 6 9 10 11 11 12 12 12 11 11 10 9 8 7 7 6 6 6 5 4 4 4 3 4 4 4 5 6 7 9 8 7 8 7 6 6 6 6 7
3 4 4 3 3 4 5 4 3 2 5 7 5 3 4 4 3 5 6 5 6 7 7 7 8 10 11 12 11 10 9 10 11 10 10 10 10 10 11 11 12 12 10 8 6 4 3 4 7 10 11 11 11 10 10 10 10 10 10 9 9 9 9 7 6 5 4 4 4 3 4 4 5 5 5 6 8 9 9 9 8 7 6 6 6 6
3 3 3 4 5 6 5 4 1 3 5 6 4 2 3 4 4 4 6 6 6 7 7 7 8 10 11 12 12 10 10 11 11 10 9 9 9 9 10 10 11 13 12 11 8 6 4 2 5 9 11 11 11 11 10 10 10 10 10 10 11 11 10 9 8 6 5 4 3 3 4 4 5 5 5 5 7 7 8 9 10 8 7 7 7 6
2 3 5 6 5 5 3 2 3 6 7 8 6 3 2 5 5 5 6 6 6 7 7 7 9 10 11 11 11 12 12 12 11 11 9 8 8 9 9 8 9 11 12 11 10 7 5 3 5 7 10 12 12 12 12 11 11 10 10 11 12 12 11 9 8 7 6 5 4 4 4 5 5 5 5 5 5 5 6 8 9 10 9 8 8 7
3 4 6 5 5 6 7 6 7 10 10 7 4 2 3 6 8 7 7 7 8 8 7 7 7 8 9 11 11 12 13 13 11 11 10 8 7 7 8 8 9 9 10 10 10 8 6 5 5 6 9 12 13 13 13 13 13 13 13 12 12 12 12 11 9 8 7 6 5 4 4 4 4 5 5 6 5 4 4 5 6 7 8 8 7 7
4 5 5 4 5 7 7 6 7 10 8 4 2 4 7 8 9 10 10 9 10 9 9 8 7 5 6 8 9 11 13 13 12 12 12 9 7 7 8 9 10 10 9 9 9 8 7 6 5 6 9 12 13 14 15 16 16 17 16 15 15 15 14 13 11 10 9 7 6 6 5 5 6 6 6 6 5 4 4 4 3 3 4 5 6 8
5 5 4 4 5 5 4 5 8 9 7 6 7 11 12 11 11 12 11 10 11 10 10 11 10 8 6 6 6 9 11 11 11 12 13 9 7 7 9 11 11 10 9 8 8 9 8 7 6 7 9 11 13 14 16 17 18 19 18 17 18 18 17 16 14 13 11 10 8 7 7 7 8 7 7 7 6 5 5 5 5 4 3 4 6 9
4 5 5 6 6 6 8 9 9 8 8 10 12 13 13 12 13 13 12 12 12 11 10 11 12 12 10 8 8 10 11 11 11 12 11 9 7 7 10 12 11 10 9 8 8 8 8 8 8 9 10 12 12 14 15 16 18 19 19 19 19 20 19 17 16 14 14 13 11 9 9 8 8 8 8 8 8 7 7 7 7 7 6 5 6 8
Wind_Direction
206 228 219 230 236 236 234 249 300 332 326 307 298 283 288 289 282 2 16 43 12 290 282 286 286 286 285 280 238 187 196 216 225 229 226 224 223 214 211 213 215 221 219 210 210 209 208 209 205 203 198 187 191 200 196 193 190 187 186 185 182 180 175 172 176 176 178 180 179 181 181 177 179 182 181 179 178 175 173 172 172 173 176 175 172 172
200 234 231 236 244 249 257 279 295 294 286 287 286 281 280 273 281 32 57 43 94 263 295 310 298 289 279 278 250 188 201 216 220 224 224 222 222 217 214 214 215 218 216 203 201 203 202 203 198 197 199 194 197 201 199 197 192 187 189 188 183 182 180 178 178 177 180 182 178 179 183 181 178 182 184 181 178 176 173 172 172 174 177 176 173 173
212 233 236 233 229 198 245 276 275 276 279 276 271 267 266 264 272 115 106 103 148 249 302 313 302 293 283 276 238 196 207 218 218 223 227 226 222 218 217 216 215 213 208 202 200 201 201 198 196 197 200 200 204 206 202 200 195 191 192 191 186 185 184 181 178 178 181 180 178 178 180 182 178 178 185 180 175 175 173 173 175 176 179 177 175 175
220 233 238 214 193 221 237 244 255 263 263 258 255 253 253 262 273 240 124 150 188 246 292 304 292 285 293 281 230 199 213 222 218 223 227 231 228 222 221 219 216 212 206 204 204 202 200 197 196 200 200 199 203 206 203 200 196 195 195 191 187 186 185 182 180 180 177 172 173 173 173 179 180 176 180 176 172 176 174 175 179 181 182 180 177 177
244 85 70 176 195 221 230 215 230 248 246 237 239 250 262 273 285 300 328 249 232 229 260 288 277 264 326 288 228 177 203 216 214 221 226 228 229 226 227 225 220 216 209 206 207 200 198 199 199 202 201 197 200 205 204 199 198 199 196 191 187 185 184 182 180 176 169 166 168 169 166 171 179 178 180 179 177 180 180 180 184 185 185 184 181 179
251 120 118 171 184 200 220 218 219 234 248 234 223 239 269 285 290 295 297 284 263 224 179 284 292 312 117 262 223 156 194 215 206 213 222 222 223 224 227 226 219 215 212 209 209 201 198 202 201 201 201 199 202 207 207 203 201 201 196 191 186 183 184 182 179 175 168 168 171 171 171 175 181 184 186 188 184 184 186 185 185 186 187 186 185 182
238 152 173 213 208 197 218 231 216 224 251 242 169 197 283 284 281 281 281 276 283 312 111 253 298 320 301 321 352 244 233 230 207 214 223 214 213 219 223 225 217 211 210 209 210 204 201 202 201 202 201 202 207 208 207 207 205 202 196 191 187 185 185 183 180 178 173 172 176 179 183 185 187 188 189 191 191 186 187 188 185 185 187 188 187 185
197 188 194 214 225 214 219 224 190 203 246 248 71 34 300 277 273 279 273 263 288 320 186 205 269 299 303 338 271 257 280 277 221 242 244 214 206 216 218 222 219 213 210 205 206 207 205 206 205 205 202 203 208 207 204 205 204 202 197 191 187 186 186 183 181 182 178 176 180 185 190 191 194 196 190 191 194 189 187 188 185 185 187 188 189 188
174 196 194 205 223 221 222 223 162 206 247 329 46 341 294 284 283 283 269 263 301 294 248 191 234 278 299 308 208 204 294 301 68 31 286 222 206 215 215 218 218 214 212 208 209 209 208 210 210 208 204 203 204 202 202 202 201 200 196 190 188 188 188 185 184 184 183 181 181 184 192 194 198 200 193 191 194 191 189 189 187 186 187 187 191 192
158 189 201 219 229 225 229 244 186 229 254 14 19 278 248 251 269 264 263 275 277 274 286 298 260 279 304 319 284 172 295 294 101 75 335 204 201 215 211 215 214 209 210 210 213 214 211 213 213 209 203 200 199 198 199 199 197 195 191 190 192 192 188 187 189 189 186 184 181 186 197 199 197 197 195 193 193 192 192 192 189 188 189 190 192 194
243 162 163 243 242 254 274 285 232 244 263 322 268 245 217 209 230 238 257 289 265 263 294 304 280 285 287 298 316 10 337 317 37 98 137 133 162 202 205 212 210 204 202 204 209 214 214 212 210 205 198 194 191 190 193 195 194 192 188 189 194 194 188 187 194 193 189 189 188 194 204 203 199 195 194 195 193 193 194 194 193 192 193 194 195 197
230 211 207 224 228 243 261 246 214 224 234 245 252 249 237 214 211 230 216 224 264 269 288 295 281 275 273 297 327 330 330 293 299 334 310 156 138 159 197 203 205 201 194 194 200 204 208 205 198 197 193 189 185 185 190 194 193 191 190 189 192 195 191 189 197 197 193 195 196 201 207 205 203 199 196 197 194 193 194 196 197 195 195 197 198 199
220 221 215 207 204 217 237 232 199 195 207 228 243 244 248 239 230 250 242 236 263 275 97 279 283 266 271 308 308 305 318 320 305 330 320 266 135 132 164 174 180 195 193 190 196 200 203 201 194 193 191 187 187 189 191 193 193 191 191 191 192 195 192 191 198 200 197 199 202 206 208 207 205 204 203 202 199 196 198 199 200 199 198 198 200 201
214 202 197 201 192 199 221 233 214 198 194 212 231 236 243 258 265 267 272 269 270 303 96 177 224 257 261 268 289 298 342 72 91 317 327 235 142 126 142 166 163 177 191 191 195 201 200 199 195 190 190 190 191 193 192 192 191 189 190 192 194 196 193 192 199 202 201 202 207 209 208 208 206 206 208 208 207 204 201 201 202 203 203 202 202 202
241 209 186 198 183 179 204 230 253 269 232 213 233 248 248 262 279 280 287 287 283 255 143 164 225 277 309 331 272 267 253 146 199 188 110 140 152 138 149 169 163 166 182 186 189 198 196 192 192 186 186 189 189 189 188 187 187 186 188 192 194 197 196 196 200 204 205 206 209 210 209 209 208 208 210 212 213 208 204 204 204 206 208 207 207 205
254 264 174 180 160 172 204 223 249 273 265 223 222 242 252 258 262 278 291 297 306 289 213 191 249 306 337 314 281 253 247 269 253 176 148 155 159 164 171 168 168 166 172 182 182 189 190 183 184 181 180 183 183 185 185 183 185 187 188 191 195 199 199 200 203 205 207 209 211 213 212 212 211 211 212 214 214 210 206 206 207 208 209 211 212 210
243 240 137 164 191 198 228 235 224 248 255 214 218 234 249 266 263 272 269 261 280 275 259 256 267 268 296 294 299 288 285 360 273 186 150 154 161 173 184 168 172 169 169 182 178 178 184 180 179 179 178 182 184 185 185 183 185 187 188 191 195 200 202 204 205 206 209 212 216 220 220 219 216 215 217 218 217 214 212 211 211 210 210 212 213 212
266 262 164 192 202 172 217 257 224 239 249 231 232 234 182 230 263 274 270 249 248 260 257 267 279 292 288 229 63 281 261 113 256 212 144 155 171 178 185 166 169 173 166 173 174 175 182 180 181 180 181 186 185 185 183 180 182 185 190 194 196 199 204 208 211 212 214 218 223 227 228 228 225 223 223 222 220 219 218 215 212 211 211 213 214 212
281 270 196 196 199 136 155 228 217 213 229 243 281 306 226 234 231 209 249 263 250 263 263 225 263 291 308 318 343 304 323 74 228 223 160 172 180 178 183 166 165 169 163 171 178 180 184 184 184 183 183 184 181 182 179 176 180 185 190 196 198 202 207 212 217 219 221 225 229 231 232 234 233 231 229 227 223 221 222 220 215 214 213 213 214 213
268 268 208 169 181 168 184 219 223 181 197 230 261 258 234 251 260 214 238 265 260 270 270 253 276 229 158 281 287 298 330 75 194 202 179 184 179 177 182 171 166 166 165 181 187 184 187 187 184 183 183 180 176 176 174 174 179 182 185 188 191 198 205 213 220 222 222 226 229 233 236 236 236 236 234 231 227 224 225 224 222 220 217 213 213 213
229 245 250 181 180 210 211 216 255 244 190 211 220 222 213 208 255 247 231 253 273 280 271 269 278 251 115 256 275 289 322 292 166 163 169 178 179 181 178 169 166 166 169 182 191 190 186 184 181 180 181 175 171 171 171 173 174 174 176 178 181 188 194 204 214 221 224 226 229 232 236 238 237 237 237 235 231 227 227 228 226 224 221 216 214 214
232 240 254 234 209 225 224 162 277 285 283 257 233 226 223 210 225 248 236 237 259 271 274 278 280 281 112 199 267 299 331 27 116 155 179 179 183 184 175 163 157 165 174 181 192 191 179 181 183 179 178 176 173 173 172 170 168 167 168 168 171 178 186 195 204 214 225 227 229 231 233 239 241 238 238 237 234 230 229 232 230 227 223 220 217 213
290 278 260 254 245 252 268 335 249 262 271 268 259 252 250 230 222 243 247 232 242 260 276 283 283 311 67 136 266 315 321 359 146 188 191 178 184 184 170 156 149 157 170 178 190 187 171 177 181 176 180 183 182 180 175 170 168 168 167 165 170 178 186 192 195 209 224 229 233 235 236 240 242 241 239 235 234 233 232 233 233 229 226 224 220 216
262 265 259 260 256 257 260 207 200 239 241 243 244 247 259 256 245 257 275 269 239 236 245 248 245 260 316 100 210 224 232 215 195 206 206 187 181 179 167 155 150 153 161 173 182 174 163 167 168 169 180 186 187 184 176 171 167 164 165 167 176 191 197 194 194 209 222 229 237 242 245 245 243 242 239 235 233 233 233 233 232 231 229 227 223 218
249 249 256 266 257 238 224 198 184 198 222 239 239 233 253 263 257 261 274 258 244 242 258 267 273 281 272 257 249 265 261 234 204 204 216 201 179 176 168 158 155 156 164 173 174 170 168 166 165 168 175 182 185 180 173 171 167 162 163 170 181 195 202 203 210 218 222 230 240 247 253 254 250 245 242 241 239 236 235 235 232 229 227 225 222 219
275 286 278 274 265 249 242 243 248 245 245 252 247 236 245 250 248 250 254 245 255 331 307 277 292 326 282 241 221 299 297 269 219 200 210 208 183 175 167 159 159 164 173 176 175 174 172 170 167 166 167 171 174 172 170 173 174 170 168 176 184 189 204 216 220 220 221 230 240 251 260 261 258 252 246 245 244 242 240 236 229 226 226 225 222 218
263 276 270 269 275 276 287 300 308 314 282 255 238 226 230 241 242 238 249 256 246 265 266 250 258 284 279 263 249 19 343 331 297 219 206 198 187 173 164 162 161 167 173 174 177 175 171 173 168 162 161 161 162 163 167 174 180 181 183 190 195 200 216 221 216 217 221 228 236 249 264 266 260 255 253 250 247 246 243 237 230 225 226 228 225 216
278 265 237 253 272 277 286 293 296 294 276 265 254 236 225 230 237 234 243 289 264 246 258 248 225 245 269 289 3 20 351 347 337 262 218 198 193 174 162 162 162 167 170 175 185 181 176 174 165 159 157 155 159 162 166 177 183 187 195 200 198 202 213 215 213 217 220 225 234 244 260 267 261 259 261 258 252 248 246 242 235 226 222 225 223 215
289 272 265 291 289 285 285 288 287 278 269 267 263 252 232 222 232 245 253 250 232 256 277 332 244 249 271 312 3 11 346 345 338 297 254 201 190 167 164 173 176 178 178 186 194 185 179 175 161 159 158 155 163 169 172 185 189 191 197 198 197 201 208 211 214 220 221 223 232 242 255 266 267 265 265 265 259 253 252 248 238 227 221 219 216 213
305 289 314 311 297 287 278 274 275 271 267 260 254 249 240 234 235 247 260 255 247 261 260 219 244 261 298 349 351 350 341 341 327 297 263 214 193 172 176 185 184 184 187 196 198 183 177 174 158 156 159 159 168 177 182 192 196 195 194 194 200 209 210 210 216 224 227 228 233 242 254 266 272 271 272 275 270 265 265 256 237 224 217 212 209 207
315 299 312 309 291 276 265 252 248 257 263 264 256 243 235 239 240 243 254 251 247 259 257 231 246 269 23 18 344 337 342 341 324 299 251 216 199 184 191 193 183 186 193 196 192 178 172 170 162 158 161 165 172 180 188 195 197 196 193 194 204 212 211 211 219 228 232 236 239 242 249 267 280 279 283 289 287 292 288 254 219 208 208 209 209 207
298 291 294 287 276 270 259 247 255 267 267 261 255 247 237 233 237 243 242 238 250 264 265 259 270 299 360 355 337 338 350 351 346 330 269 227 211 202 207 202 182 183 195 193 181 177 177 174 172 168 166 170 175 184 191 193 193 194 194 197 204 208 207 209 220 230 234 238 242 236 232 251 274 280 294 311 313 324 333 191 182 189 200 202 201 200
290 293 287 276 274 269 258 258 277 281 267 254 256 273 264 248 254 257 241 219 343 316 282 272 326 340 346 343 335 338 348 352 351 343 318 295 267 233 230 223 187 179 194 192 175 176 183 179 177 174 170 172 179 189 193 190 190 192 193 196 199 202 205 208 218 231 232 231 235 232 228 235 253 276 304 335 353 23 93 138 162 177 186 187 187 186
278 281 281 279 275 265 264 279 286 267 256 251 38 29 1 319 298 292 48 55 34 11 351 354 6 358 351 344 336 333 340 346 344 332 313 302 291 259 242 235 197 182 188 185 174 172 175 173 171 167 166 170 176 183 185 183 184 184 183 188 196 203 208 209 219 230 226 220 226 229 230 234 235 253 306 356 32 87 136 154 165 174 180 182 183 183
267 265 266 265 261 266 274 275 263 259 251 115 73 45 22 15 41 76 75 52 33 24 17 9 6 1 351 345 339 332 334 348 5 10 352 336 321 288 253 229 204 197 190 177 171 167 160 164 165 162 163 168 169 173 177 177 175 171 172 180 190 204 212 213 219 227 225 220 225 230 236 241 227 208 169 123 103 113 147 163 169 175 180 184 185 187
257 259 260 256 249 255 260 249 249 259 166 120 85 35 24 23 34 91 97 55 34 25 19 8 4 2 352 347 345 336 332 354 72 66 38 18 359 331 296 258 215 204 198 184 174 165 158 162 163 159 159 161 165 172 176 173 168 165 170 177 184 197 210 213 214 222 229 229 225 229 233 239 236 208 171 144 142 145 157 169 177 181 183 185 188 191
244 255 252 247 240 241 250 250 252 254 220 158 84 26 17 13 360 323 130 65 38 25 20 11 7 5 357 353 351 341 327 210 147 75 35 14 2 352 328 300 260 214 201 186 164 149 145 148 148 149 151 155 164 173 173 170 165 162 166 173 184 197 203 208 211 215 225 229 227 221 208 195 215 206 174 162 168 168 168 176 184 188 189 189 191 194
233 243 249 249 237 237 251 253 251 248 238 175 47 23 3 359 355 296 212 88 39 23 19 13 10 9 3 360 358 348 322 211 155 38 13 357 350 349 338 313 283 236 203 178 152 141 142 142 143 147 151 156 163 167 168 168 166 163 165 170 182 196 202 208 214 214 217 221 219 209 189 187 202 192 173 176 182 176 174 180 187 191 192 192 193 196
227 228 242 253 246 244 248 248 252 249 239 29 14 357 352 351 314 235 219 176 24 13 12 9 7 8 3 360 3 3 358 27 30 8 352 345 344 347 346 328 291 253 207 182 164 152 147 142 142 147 154 161 162 163 166 168 167 167 166 169 181 194 204 212 212 212 216 214 209 201 192 191 190 180 174 177 178 177 175 175 183 189 192 199 203 202
222 216 223 239 245 248 245 247 259 250 73 24 354 343 346 343 244 225 223 201 5 357 5 7 1 3 1 356 3 17 25 24 4 343 339 342 348 355 355 342 311 285 233 196 170 149 142 144 150 157 164 167 163 161 163 163 166 170 166 168 185 199 208 214 209 204 204 202 199 196 197 197 186 174 177 175 166 167 169 169 176 178 182 200 210 209
234 228 233 242 247 244 238 247 258 152 62 2 343 352 350 326 228 223 244 355 349 341 358 4 356 360 359 353 0 16 15 2 342 333 338 348 359 5 3 358 346 313 273 214 159 147 150 156 163 168 169 166 161 161 163 165 166 168 168 173 189 203 208 211 207 200 196 195 193 192 199 203 188 175 176 174 164 163 166 174 182 180 180 192 202 204
248 257 248 247 261 262 245 255 257 182 49 352 336 2 357 317 235 224 342 336 330 339 356 356 355 1 355 349 354 353 345 341 339 339 346 356 6 11 9 7 5 344 315 314 167 166 163 160 163 167 165 163 164 164 166 169 169 169 174 181 191 201 202 200 202 201 195 189 191 195 202 207 199 184 177 174 171 168 169 177 184 186 187 191 195 198
320 299 257 236 289 286 255 255 258 230 34 2 345 7 14 359 17 22 351 338 342 349 348 344 356 0 349 344 346 339 336 340 341 343 351 358 7 13 13 11 9 4 348 319 257 207 180 162 160 166 165 163 166 168 169 171 172 173 180 185 187 189 190 194 200 201 195 187 186 196 204 208 210 202 188 180 177 173 172 178 182 188 191 192 197 200
4 318 288 313 5 300 260 272 297 312 16 11 9 32 40 42 40 359 340 348 355 353 345 341 349 350 343 342 338 331 332 339 340 343 348 355 5 12 12 11 10 8 360 341 316 247 207 175 160 160 163 163 165 169 172 175 175 176 180 181 177 178 183 192 197 198 196 189 182 192 204 209 213 211 201 191 182 174 173 178 182 188 191 192 200 204
32 8 322 318 338 315 298 322 13 12 356 5 24 55 49 48 33 351 340 344 350 351 347 339 336 339 339 337 333 329 330 334 334 339 344 348 358 8 9 7 6 6 4 360 358 340 285 205 167 161 160 160 162 164 171 180 183 181 180 175 172 176 180 186 192 196 198 194 190 198 205 210 212 211 212 207 196 186 180 180 184 190 190 191 200 208
27 360 308 290 308 317 295 274 321 360 349 346 349 7 16 18 20 1 346 344 343 337 331 327 329 333 333 330 331 333 331 328 327 331 337 341 348 357 2 4 3 2 2 3 3 348 317 250 190 173 160 154 157 162 171 183 189 186 180 174 173 176 177 179 186 191 193 194 197 206 208 211 213 210 214 220 213 203 193 186 188 190 189 192 198 205
66 1 309 288 295 310 292 271 337 341 334 328 318 300 328 346 353 351 340 336 331 316 309 313 320 325 329 328 328 329 326 323 326 329 330 332 338 345 349 352 356 357 355 355 354 344 319 275 226 192 166 158 163 171 176 182 186 185 179 176 177 176 172 174 183 186 187 192 199 206 211 216 216 210 212 217 219 220 213 202 199 196 193 197 201 204
31 355 315 292 290 294 288 295 322 325 317 307 295 287 327 335 339 338 330 324 317 304 295 300 309 317 321 320 322 325 322 320 323 325 322 322 328 333 335 337 340 343 344 347 346 340 323 293 258 212 183 174 175 178 181 181 185 186 182 179 181 176 169 171 181 185 185 188 196 202 208 213 214 212 214 215 211 218 223 217 217 214 203 197 198 205
319 307 304 308 298 281 273 289 325 326 309 274 268 317 325 325 323 320 315 311 308 304 299 297 295 288 290 302 318 323 317 316 319 316 312 315 321 318 320 325 324 322 329 338 338 332 317 293 266 227 204 196 189 185 184 186 189 190 185 181 179 175 172 173 178 184 185 185 190 193 195 204 210 211 211 206 197 203 217 215 220 226 204 190 200 212
280 285 301 302 285 280 301 332 337 324 303 290 305 312 312 312 309 306 304 302 299 298 298 298 298 295 287 290 302 302 301 304 304 298 298 307 317 311 308 311 312 312 318 326 329 327 320 298 265 234 217 211 205 197 194 193 193 191 188 182 178 177 176 176 178 181 183 183 188 191 191 198 205 208 208 199 188 194 215 223 224 224 207 196 209 217
295 301 307 297 292 305 321 324 322 311 297 297 303 303 304 305 302 297 295 294 290 290 292 294 297 300 299 293 284 281 285 292 289 284 288 300 309 301 293 295 299 302 307 312 317 322 325 314 282 250 227 217 216 215 212 206 200 194 189 185 182 180 180 180 181 182 182 182 183 186 192 198 198 197 200 198 191 192 201 209 215 219 217 208 202 204